Find Starlink 4386

NORAD ID: 53649 Int'l Des: 2022-105 Owner: SPXS Country: US Constellation: starlink operational
LEOCIRCULARRETROGRADESSO

リアルタイム位置

3D地球を読み込み中...

Starlink 4386について

説明を読み込み中...

次回通過

Passes for default location (London). Set your location on the main map for personalized predictions.

高度履歴

Loading altitude history...

軌道要素

1 53649U 22105B 26139.33335648 -.00021945 00000-0 -69929-3 0 9994
2 53649 97.6024 22.0884 0001921 95.3611 53.7711 15.32511187 5833
Epoch: May 19, 2026 • Age: 5 hours

現在のステータス

高度 473.3 km
速度 7.63 km/s
衛星直下点 -9.51°S, 130.66°E
打ち上げ日 Aug 31, 2022
運用期間 3.7 years
タイプ internet

技術仕様

分類 Payload
質量 300.00 kg
乾燥質量 290.00 kg
総質量 300.00 kg
長さ 0.20 m
直径 2.80 m
スパン 9.00 m
形状 Box + pan
製造者 SPXS
バスタイプ Starlink
フェーズステータス In Orbit
所有者/国 SPXS/US

Most Searched